Location: São Paulo
(23.5507°S, 46.6334°W)
Time: 10:15:35
(UTC-03:00)

Transit 4A - Pass Details

Date: 24 February 2026
Orbit: 864 x 977 km, 66.8° (Epoch: 11 March)

Event Time Altitude Azimuth Distance (km) Brightness Sun altitude
Rises 12:46:57 0° 358° (N) 3,656 11.2 74.3°
Reaches altitude 10° 12:49:40 10° 5° (N) 2,712 10.7 74.0°
Maximum altitude 12:55:31 39° 72° (ENE) 1,406 9.4 73.4°
Drops below altitude 10° 13:01:19 10° 139° (SE) 2,694 10.3 72.6°
Sets 13:04:00 0° 146° (SE) 3,629 10.8 72.2°
